Location: A�t Bou Chrif
(32.7193°N, 5.2385°W)
Time: 02:33:53
(UTC+00:00)

USA 234 - Pass Details

Date: 08 August 2020
Orbit: 1100 x 1108 km, 123.0° (Epoch: 17 September)

Event Time Altitude Azimuth Distance (km) Brightness Sun altitude
Exits shadow 22:06:04 48° 54° (NE) 1,399 3.7 -31.0°
Maximum altitude 22:06:32 49° 41° (NE) 1,384 3.7 -31.1°
Drops below altitude 10° 22:12:47 10° 329° (NNW) 2,963 6.4 -31.9°
Sets 22:15:20 0° 324° (NW) 3,924 7.3 -32.2°
